Tracking 31027 objects as of 19-Jul-2025
HD Live streaming from Space Station
objects crossing your sky now

NOAA 16 DEB

Track NOAA 16 DEB now!
10-day predictions


NORAD ID: 41409
Int'l Code: 2000-055KN
Perigee: 750.4 km
Apogee: 793.0 km
Inclination: 98.7 °
Period: 100.1 minutes
Semi major axis: 7142 km
RCS: Unknown
Launch date: September 21, 2000
Source: United States (US)
Launch site: AIR FORCE WESTERN TEST RANGE (AFWTR)

Note: This is SATELLITE DEBRIS
Your satellite tracking list
NOAA 16 DEB
Track 1 satellite(s)




NASA's NSSDC Master Catalog

Two Line Element Set (TLE):
1 41409U 00055KN  25199.65785218  .00004793  00000-0  15847-2 0  9996
2 41409  98.6546 278.3640 0029828 120.3145 240.0998 14.38174057487936
Source of the keplerian elements: AFSPC